TimeEDT,TemperatureF,Dew PointF,Humidity,Sea Level PressureIn,VisibilityMPH,Wind Direction,Wind SpeedMPH,Gust SpeedMPH,PrecipitationIn,Events,Conditions,WindDirDegrees,DateUTC
12:53 AM,63.0,52.0,67,29.95,10.0,North,6.9,-,N/A,,Clear,350,2013-06-19 04:53:00
1:53 AM,62.1,51.1,67,29.96,10.0,NNW,8.1,-,N/A,,Clear,340,2013-06-19 05:53:00
2:53 AM,61.0,48.9,64,29.98,10.0,North,5.8,-,N/A,,Mostly Cloudy,350,2013-06-19 06:53:00
3:53 AM,61.0,48.9,64,29.98,10.0,North,8.1,-,N/A,,Overcast,350,2013-06-19 07:53:00
4:53 AM,61.0,48.9,64,29.99,10.0,North,6.9,-,N/A,,Mostly Cloudy,10,2013-06-19 08:53:00
5:53 AM,59.0,48.0,67,30.00,10.0,North,10.4,-,N/A,,Clear,350,2013-06-19 09:53:00
6:53 AM,60.1,48.9,67,30.02,10.0,NNW,8.1,-,N/A,,Clear,340,2013-06-19 10:53:00
7:53 AM,63.0,50.0,63,30.05,10.0,NNE,10.4,-,N/A,,Clear,20,2013-06-19 11:53:00
8:53 AM,66.0,51.1,59,30.08,10.0,Variable,4.6,-,N/A,,Clear,0,2013-06-19 12:53:00
9:53 AM,68.0,51.1,55,30.09,10.0,NNE,9.2,-,N/A,,Clear,20,2013-06-19 13:53:00
10:53 AM,70.0,51.1,51,30.10,10.0,NE,8.1,-,N/A,,Clear,50,2013-06-19 14:53:00
11:53 AM,72.0,48.9,44,30.11,10.0,NE,5.8,-,N/A,,Scattered Clouds,50,2013-06-19 15:53:00
1:53 PM,73.9,45.0,35,30.09,10.0,North,10.4,-,N/A,,Partly Cloudy,10,2013-06-19 17:53:00
2:53 PM,75.9,42.1,30,30.09,10.0,NNW,4.6,-,N/A,,Clear,340,2013-06-19 18:53:00
5:53 PM,77.0,43.0,30,30.08,10.0,ENE,3.5,-,N/A,,Clear,70,2013-06-19 21:53:00
6:53 PM,75.9,43.0,31,30.08,10.0,Calm,Calm,-,N/A,,Clear,0,2013-06-19 22:53:00
7:53 PM,75.0,45.0,34,30.10,10.0,Calm,Calm,-,N/A,,Clear,0,2013-06-19 23:53:00
8:53 PM,64.9,55.0,70,30.11,9.0,Calm,Calm,-,N/A,,Clear,0,2013-06-20 00:53:00
10:53 PM,57.9,54.0,87,30.15,10.0,Calm,Calm,-,N/A,,Clear,0,2013-06-20 02:53:00
11:53 PM,57.0,53.1,87,30.17,10.0,Calm,Calm,-,N/A,,Clear,0,2013-06-20 03:53:00